| time (UTC) | temp F | wind direction | speed knots | gust knots | rain 1hr in | rain 24hr in | rain mn in | humidity % | barometer mb |
| 20260510113008 | 53 | 32 | 10.4 | 16.5 | 0.00 | 0.00 | 0.00 | 74 | 1016.1 |
| 20260510112007 | 53 | 21 | 10.4 | 14.8 | 0.00 | 0.00 | 0.00 | 74 | 1016.1 |
| 20260510111008 | 54 | 18 | 11.3 | 16.5 | 0.00 | 0.00 | 0.00 | 69 | 1016.2 |
| 20260510110008 | 54 | 22 | 11.3 | 16.5 | 0.00 | 0.00 | 0.00 | 69 | 1016.3 |
| 20260510105007 | 54 | 20 | 11.3 | 15.6 | 0.00 | 0.00 | 0.00 | 71 | 1016.4 |
| 20260510104007 | 53 | 23 | 9.6 | 15.6 | 0.00 | 0.00 | 0.00 | 74 | 1016.3 |
| 20260510103008 | 53 | 24 | 10.4 | 15.6 | 0.00 | 0.00 | 0.00 | 74 | 1016.6 |
| 20260510102008 | 53 | 21 | 10.4 | 18.2 | 0.00 | 0.00 | 0.00 | 75 | 1016.4 |
| 20260510101008 | 53 | 20 | 9.6 | 15.6 | 0.00 | 0.00 | 0.00 | 75 | 1016.6 |
| 20260510095007 | 53 | 28 | 8.7 | 14.8 | 0.00 | 0.00 | 0.00 | 76 | 1016.5 |
| 20260510094007 | 52 | 29 | 8.7 | 13.0 | 0.00 | 0.00 | 0.00 | 77 | 1016.5 |
| 20260510093008 | 52 | 26 | 9.6 | 14.8 | 0.00 | 0.00 | 0.00 | 77 | 1016.4 |
| 20260510092008 | 52 | 26 | 10.4 | 15.6 | 0.00 | 0.00 | 0.00 | 78 | 1016.4 |
| 20260510091007 | 52 | 23 | 9.6 | 15.6 | 0.00 | 0.00 | 0.00 | 80 | 1016.5 |
| 20260510083008 | 51 | 34 | 8.7 | 13.0 | 0.00 | 0.00 | 0.00 | 80 | 1016.6 |
| 20260510082008 | 51 | 32 | 7.8 | 12.2 | 0.00 | 0.00 | 0.00 | 80 | 1016.5 |
| 20260510081008 | 51 | 40 | 8.7 | 14.8 | 0.00 | 0.00 | 0.00 | 80 | 1016.5 |
| 20260510080008 | 51 | 44 | 7.8 | 13.0 | 0.00 | 0.00 | 0.00 | 79 | 1016.7 |
| 20260510075008 | 51 | 42 | 7.8 | 11.3 | 0.00 | 0.00 | 0.00 | 78 | 1016.5 |
| 20260510074008 | 51 | 42 | 7.8 | 12.2 | 0.00 | 0.00 | 0.00 | 78 | 1016.6 |
| 20260510073008 | 51 | 34 | 7.8 | 12.2 | 0.00 | 0.00 | 0.00 | 78 | 1016.7 |
| 20260510072008 | 51 | 34 | 7.8 | 13.0 | 0.00 | 0.00 | 0.00 | 78 | 1016.7 |
| 20260510065007 | 51 | 46 | 7.0 | 12.2 | 0.00 | 0.00 | 0.00 | 78 | 1016.6 |
| 20260510064008 | 50 | 46 | 7.8 | 11.3 | 0.00 | 0.00 | 0.00 | 79 | 1016.8 |
| 20260510062008 | 50 | 48 | 6.1 | 12.2 | 0.00 | 0.00 | 0.00 | 80 | 1016.8 |
| 20260510060008 | 50 | 50 | 7.0 | 10.4 | 0.00 | 0.00 | 0.00 | 81 | 1016.8 |
| 20260510055008 | 49 | 43 | 3.5 | 8.7 | 0.00 | 0.00 | 0.00 | 81 | 1016.8 |
| 20260510054008 | 49 | 42 | 5.2 | 9.6 | 0.00 | 0.00 | 0.00 | 81 | 1016.7 |
| 20260510053009 | 49 | 43 | 6.1 | 7.8 | 0.00 | 0.00 | 0.00 | 82 | 1016.6 |
| 20260510052007 | 49 | 43 | 7.8 | 12.2 | 0.00 | 0.00 | 0.00 | 82 | 1016.6 |
| 20260510051007 | 49 | 41 | 7.0 | 11.3 | 0.00 | 0.00 | 0.00 | 82 | 1016.6 |
| 20260510050008 | 49 | 40 | 7.8 | 14.8 | 0.00 | 0.00 | 0.00 | 82 | 1016.6 |
| 20260510045020 | 49 | 37 | 7.8 | 12.2 | 0.00 | 0.00 | 0.00 | 82 | 1016.6 |
| 20260510044011 | 49 | 36 | 8.7 | 13.9 | 0.00 | 0.00 | 0.00 | 82 | 1016.5 |
| 20260510043008 | 49 | 38 | 7.8 | 12.2 | 0.00 | 0.00 | 0.00 | 82 | 1016.5 |
| 20260510042007 | 50 | 44 | 7.8 | 13.9 | 0.00 | 0.00 | 0.00 | 82 | 1016.6 |
| 20260510041007 | 50 | 41 | 7.0 | 12.2 | 0.00 | 0.00 | 0.00 | 82 | 1016.6 |
| 20260510040007 | 50 | 37 | 7.8 | 13.9 | 0.00 | 0.00 | 0.00 | 82 | 1016.8 |
| 20260510034007 | 50 | 27 | 7.0 | 9.6 | 0.00 | 0.00 | 0.00 | 82 | 1016.7 |
| 20260510033007 | 51 | 29 | 6.1 | 9.6 | 0.00 | 0.00 | 0.00 | 82 | 1016.7 |
| 20260510032007 | 51 | 29 | 6.1 | 9.6 | 0.00 | 0.00 | 0.00 | 82 | 1016.9 |
| 20260510031007 | 51 | 32 | 6.1 | 8.7 | 0.00 | 0.00 | 0.00 | 81 | 1017.0 |
| 20260510025007 | 52 | 37 | 5.2 | 9.6 | 0.00 | 0.00 | 0.00 | 80 | 1016.9 |
| 20260510024007 | 52 | 44 | 6.1 | 11.3 | 0.00 | 0.00 | 0.00 | 80 | 1016.8 |
| 20260510023007 | 52 | 46 | 5.2 | 8.7 | 0.00 | 0.00 | 0.00 | 78 | 1016.9 |
| 20260510022007 | 52 | 49 | 5.2 | 9.6 | 0.00 | 0.00 | 0.00 | 78 | 1016.8 |
| 20260510021007 | 52 | 48 | 5.2 | 7.8 | 0.00 | 0.00 | 0.00 | 76 | 1016.8 |
| 20260510020007 | 53 | 44 | 5.2 | 8.7 | 0.00 | 0.00 | 0.00 | 75 | 1017.0 |
| 20260510015007 | 53 | 45 | 7.0 | 11.3 | 0.00 | 0.00 | 0.00 | 74 | 1016.8 |
| 20260510014007 | 53 | 46 | 6.1 | 12.2 | 0.00 | 0.00 | 0.00 | 73 | 1016.8 |
| 20260510013007 | 53 | 45 | 5.2 | 9.6 | 0.00 | 0.00 | 0.00 | 72 | 1016.8 |
| 20260510012007 | 53 | 54 | 5.2 | 9.6 | 0.00 | 0.00 | 0.00 | 70 | 1016.8 |
| 20260510010007 | 53 | 60 | 5.2 | 9.6 | 0.00 | 0.00 | 0.00 | 67 | 1016.9 |
| 20260510005008 | 53 | 64 | 7.0 | 12.2 | 0.00 | 0.00 | 0.00 | 66 | 1016.7 |
| 20260510004007 | 54 | 58 | 6.1 | 12.2 | 0.00 | 0.00 | 0.00 | 63 | 1016.7 |
| 20260510003007 | 54 | 57 | 7.8 | 10.4 | 0.00 | 0.00 | 0.00 | 62 | 1016.7 |
| 20260510002007 | 54 | 56 | 7.8 | 11.3 | 0.00 | 0.00 | 0.00 | 60 | 1016.9 |
| 20260509235002 | 54 | 68 | 7.8 | 13.9 | 0.00 | 0.00 | 0.00 | 58 | 1016.9 |
| 20260509234002 | 54 | 69 | 7.8 | 11.3 | 0.00 | 0.00 | 0.00 | 57 | 1016.9 |
| 20260509233002 | 54 | 70 | 6.1 | 9.6 | 0.00 | 0.00 | 0.00 | 56 | 1017.1 |
| 20260509232002 | 54 | 66 | 7.8 | 11.3 | 0.00 | 0.00 | 0.00 | 55 | 1017.0 |
| 20260509231002 | 54 | 67 | 7.0 | 9.6 | 0.00 | 0.00 | 0.00 | 54 | 1017.0 |
| 20260509230009 | 54 | 63 | 5.2 | 7.8 | 0.00 | 0.00 | 0.00 | 54 | 1017.0 |
| 20260509221002 | 54 | 60 | 6.1 | 10.4 | 0.00 | 0.00 | 0.00 | 51 | 1017.0 |
| 20260509220002 | 54 | 63 | 5.2 | 9.6 | 0.00 | 0.00 | 0.00 | 50 | 1017.2 |
| 20260509215002 | 54 | 63 | 6.1 | 9.6 | 0.00 | 0.00 | 0.00 | 49 | 1017.0 |
| 20260509213002 | 54 | 60 | 5.2 | 9.6 | 0.00 | 0.00 | 0.00 | 48 | 1017.1 |
| 20260509212002 | 54 | 61 | 6.1 | 7.8 | 0.00 | 0.00 | 0.00 | 48 | 1017.0 |
| 20260509211002 | 55 | 63 | 6.1 | 9.6 | 0.00 | 0.00 | 0.00 | 49 | 1017.0 |
| 20260509210002 | 55 | 60 | 5.2 | 9.6 | 0.00 | 0.00 | 0.00 | 49 | 1017.1 |
| 20260509205002 | 55 | 68 | 5.2 | 7.8 | 0.00 | 0.00 | 0.00 | 50 | 1017.1 |
| 20260509204001 | 56 | 75 | 5.2 | 9.6 | 0.00 | 0.00 | 0.00 | 52 | 1016.8 |
| 20260509203002 | 56 | 71 | 3.5 | 6.1 | 0.00 | 0.00 | 0.00 | 53 | 1016.6 |
| 20260509202002 | 57 | 72 | 5.2 | 7.8 | 0.00 | 0.00 | 0.00 | 53 | 1016.6 |
| 20260509201002 | 57 | 65 | 7.0 | 9.6 | 0.00 | 0.00 | 0.00 | 52 | 1016.7 |
| 20260509195003 | 58 | 61 | 5.2 | 8.7 | 0.00 | 0.00 | 0.00 | 51 | 1016.6 |
| 20260509193003 | 59 | 58 | 4.3 | 8.7 | 0.00 | 0.00 | 0.00 | 50 | 1016.5 |
| 20260509192003 | 60 | 58 | 5.2 | 9.6 | 0.00 | 0.00 | 0.00 | 49 | 1016.6 |
| 20260509191003 | 60 | 54 | 7.0 | 11.3 | 0.00 | 0.00 | 0.00 | 48 | 1016.4 |
| 20260509185003 | 61 | 52 | 7.8 | 11.3 | 0.00 | 0.00 | 0.00 | 47 | 1016.4 |
| 20260509183003 | 62 | 57 | 7.8 | 13.9 | 0.00 | 0.00 | 0.00 | 47 | 1016.2 |
| 20260509182006 | 63 | 58 | 7.8 | 13.0 | 0.00 | 0.00 | 0.00 | 45 | 1016.3 |
| 20260509181003 | 63 | 53 | 10.4 | 13.0 | 0.00 | 0.00 | 0.00 | 44 | 1016.2 |
| 20260509180004 | 64 | 44 | 10.4 | 14.8 | 0.00 | 0.00 | 0.00 | 44 | 1016.2 |
| 20260509175003 | 64 | 38 | 7.8 | 13.0 | 0.00 | 0.00 | 0.00 | 45 | 1016.3 |
| 20260509174003 | 65 | 39 | 8.7 | 14.8 | 0.00 | 0.00 | 0.00 | 45 | 1016.2 |
| 20260509173003 | 65 | 36 | 9.6 | 14.8 | 0.00 | 0.00 | 0.00 | 45 | 1016.0 |
| 20260509171002 | 66 | 47 | 9.6 | 15.6 | 0.00 | 0.00 | 0.00 | 46 | 1015.7 |
| 20260509170004 | 67 | 51 | 8.7 | 13.9 | 0.00 | 0.00 | 0.00 | 45 | 1015.7 |
| 20260509165003 | 67 | 59 | 9.6 | 14.8 | 0.00 | 0.00 | 0.00 | 45 | 1015.8 |
| 20260509164003 | 68 | 58 | 9.6 | 14.8 | 0.00 | 0.00 | 0.00 | 45 | 1015.8 |
| 20260509163002 | 68 | 56 | 11.3 | 14.8 | 0.00 | 0.00 | 0.00 | 45 | 1015.7 |
| 20260509162002 | 69 | 56 | 10.4 | 15.6 | 0.00 | 0.00 | 0.00 | 44 | 1015.7 |
| 20260509161003 | 69 | 55 | 8.7 | 13.0 | 0.00 | 0.00 | 0.00 | 44 | 1015.5 |
| 20260509160003 | 69 | 61 | 9.6 | 14.8 | 0.00 | 0.00 | 0.00 | 44 | 1015.6 |
| 20260509154003 | 70 | 60 | 8.7 | 11.3 | 0.00 | 0.00 | 0.00 | 44 | 1015.6 |
| 20260509152003 | 70 | 48 | 8.7 | 13.9 | 0.00 | 0.00 | 0.00 | 44 | 1015.8 |
| 20260509151003 | 70 | 54 | 9.6 | 13.0 | 0.00 | 0.00 | 0.00 | 43 | 1015.9 |
| 20260509150004 | 71 | 57 | 8.7 | 13.0 | 0.00 | 0.00 | 0.00 | 44 | 1015.9 |
| 20260509145004 | 71 | 66 | 7.8 | 13.9 | 0.00 | 0.00 | 0.00 | 44 | 1016.2 |
| 20260509144003 | 71 | 65 | 6.1 | 13.9 | 0.00 | 0.00 | 0.00 | 43 | 1016.2 |
| 20260509143004 | 71 | 61 | 8.7 | 13.9 | 0.00 | 0.00 | 0.00 | 43 | 1016.0 |
| 20260509142003 | 71 | 63 | 10.4 | 13.9 | 0.00 | 0.00 | 0.00 | 43 | 1015.9 |
| 20260509141004 | 71 | 58 | 7.0 | 13.0 | 0.00 | 0.00 | 0.00 | 43 | 1015.8 |
| 20260509140005 | 71 | 66 | 9.6 | 14.8 | 0.00 | 0.00 | 0.00 | 40 | 1015.7 |
| 20260509135004 | 72 | 65 | 6.1 | 11.3 | 0.00 | 0.00 | 0.00 | 39 | 1015.5 |
| 20260509134003 | 71 | 64 | 8.7 | 15.6 | 0.00 | 0.00 | 0.00 | 42 | 1015.8 |
| 20260509133003 | 71 | 62 | 7.8 | 13.9 | 0.00 | 0.00 | 0.00 | 43 | 1015.8 |
| 20260509132003 | 71 | 49 | 8.7 | 12.2 | 0.00 | 0.00 | 0.00 | 43 | 1016.0 |
| 20260509125003 | 70 | 47 | 7.8 | 12.2 | 0.00 | 0.00 | 0.00 | 43 | 1016.0 |
| 20260509124004 | 70 | 54 | 8.7 | 13.9 | 0.00 | 0.00 | 0.00 | 44 | 1016.0 |
| 20260509123003 | 70 | 52 | 8.7 | 14.8 | 0.00 | 0.00 | 0.00 | 44 | 1016.2 |
| 20260509122004 | 71 | 58 | 11.3 | 15.6 | 0.00 | 0.00 | 0.00 | 44 | 1016.4 |
| 20260509121003 | 71 | 53 | 8.7 | 13.0 | 0.00 | 0.00 | 0.00 | 44 | 1016.6 |
| 20260509114004 | 70 | 55 | 9.6 | 14.8 | 0.00 | 0.00 | 0.00 | 45 | 1017.0 |